Volver al catálogo

STARLINK-36663

ActivoComunicacionesVLEO
NORAD 67919·PAYLOAD·🇺🇸 United States

Lanzado Feb 22, 2026 desde Vandenberg Space Force Base

Loading…

Próximos Pases (próximas 24 horas)

TLE

ActualizadoSource: CelesTrak SupGP

Época: Sep 14, 2026, 21:25 UTC

1 67919C 26036R   26257.89284722  .00036851  00000+0  13353-2 0  2579
2 67919  42.9997 256.3747 0001375 263.2598  52.4218 15.27548070    11

Sigue STARLINK-36663 en tiempo real con AllMySat

Download on the App Store